User: anonymous   Login
Location: Unspecified
(42.0334°N, 93.6656°W)
Time: 00:13:50
(UTC-05:00)
Language:

Iridium 63 - Orbit

View from above orbital plane
View from above orbital plane
View from above satellite
View from above satellite

Ground track
Ground track

The orbit data is extracted from the following two-line orbital elements,

1 25286U 98021B   18146.38498140  .00000060  00000-0  14235-4 0  9995
2 25286  86.3998  80.8980 0002365  82.8048  32.8773 14.34724764 54255
Epoch (UTC): 26 May 2018 09:14:22
Eccentricity: 0.0002365
inclination: 86.3998°
perigee height: 774 km
apogee height: 777 km
right ascension of ascending node: 80.8980°
argument of perigee: 82.8048°
revolutions per day: 14.34724764
mean anomaly at epoch: 32.8773°
orbit number at epoch: 5425

The dashed part of the orbit path shows where the satellite is in the earth's shadow,  

DLR